Weather History for Quakertown, PA

Change the Weather History Date:

Sunday, September 29, 2013

  Actual Average (KABE) Record (KABE)
Temperature  
Mean Temperature 56 °F 59 °F  
Max Temperature 69 °F 70 °F 86 °F (1945)
Min Temperature 44 °F 47 °F 32 °F (2000)
Degree Days  
Heating Degree Days 8 7  
Month to date heating degree days 96  
Since 1 July heating degree days 107  
Cooling Degree Days 0 1  
Month to date cooling degree days 71  
Year to date cooling degree days 750  
Growing Degree Days 6 (Base 50)    
Moisture  
Dew Point 49 °F    
Average Humidity 80    
Maximum Humidity 100    
Minimum Humidity 49    
Precipitation  
Precipitation 0.00 in 0.18 in 1.82 in (1963)
Month to date precipitation 4.45  
Year to date precipitation 34.22  
Snow  
Snow 0.00 in 0.00 in 0.00 in (2002)
Month to date snowfall 0.0  
Since 1 July snowfall 0.0  
Since 1 September snowfall 0.0  
Snow Depth -    
Sea Level Pressure  
Sea Level Pressure 30.17 in    
Wind  
Wind Speed 1 mph (East)    
Max Wind Speed 8 mph    
Max Gust Speed -    
Visibility 10 miles    
Events      
T = Trace of Precipitation, MM = Missing Value Source: NWS Daily Summary

Daily Weather History Graph

Daily Weather History Graph

Search for Another Location

Airport:

Trip Planner

Search our weather history database for the weather conditions in past years. The results will help you decide how hot, cold, wet, or windy it might be!

Date:

Astronomy

Sep. 29, 2013 Rise Set
Actual Time 6:56 AM EDT 6:46 PM EDT
Civil Twilight 6:29 AM EDT 7:13 PM EDT
Nautical Twilight 5:57 AM EDT 7:45 PM EDT
Astronomical Twilight 5:25 AM EDT 8:17 PM EDT
Moon 1:34 AM EDT (9/29) 3:42 PM EDT (9/29)
Length of Visible Light 12h 44m
Length of Day
11h 50m
Waning Crescent, 27% of the Moon is Illuminated
Sep 29
Waning Crescent
Oct 4
New
Oct 11
First Quarter
Oct 18
Full
Oct 26
Last Quarter

Hourly Weather History & Observations

Time (EDT) Temp. Dew Point Humidity Pressure Visibility Wind Dir Wind Speed Gust Speed Precip Events Conditions
12:15 AM 48.2 °F 48.2 °F 100% 30.26 in 10.0 mi Calm Calm - N/A   Clear
12:35 AM 48.2 °F 46.4 °F 93% 30.25 in 10.0 mi Calm Calm - N/A   Clear
12:55 AM 48.2 °F 46.4 °F 93% 30.25 in 10.0 mi Calm Calm - N/A   Clear
1:15 AM 48.2 °F 46.4 °F 93% 30.25 in 10.0 mi Calm Calm - N/A   Clear
1:35 AM 48.2 °F 46.4 °F 93% 30.24 in 10.0 mi Calm Calm - N/A   Clear
1:55 AM 48.2 °F 46.4 °F 93% 30.24 in 10.0 mi Calm Calm - N/A   Clear
2:15 AM 46.4 °F 46.4 °F 100% 30.23 in 10.0 mi Calm Calm - N/A   Partly Cloudy
2:35 AM 46.4 °F 46.4 °F 100% 30.23 in 10.0 mi Calm Calm - N/A   Scattered Clouds
2:55 AM 46.4 °F 44.6 °F 93% 30.22 in 10.0 mi Calm Calm - N/A   Clear
3:15 AM 46.4 °F 44.6 °F 93% 30.21 in 10.0 mi Calm Calm - N/A   Clear
3:35 AM 46.4 °F 44.6 °F 93% 30.21 in 10.0 mi Calm Calm - N/A   Clear
3:55 AM 46.4 °F 44.6 °F 93% 30.21 in 10.0 mi Calm Calm - N/A   Clear
4:15 AM 44.6 °F 44.6 °F 100% 30.20 in 10.0 mi Calm Calm - N/A   Clear
4:35 AM 44.6 °F 44.6 °F 100% 30.20 in 10.0 mi Calm Calm - N/A   Clear
4:55 AM 44.6 °F 44.6 °F 100% 30.21 in 10.0 mi Calm Calm - N/A   Clear
5:15 AM 44.6 °F 44.6 °F 100% 30.20 in 10.0 mi Calm Calm - N/A   Clear
5:35 AM 44.6 °F 42.8 °F 93% 30.21 in 10.0 mi Calm Calm - N/A   Clear
5:55 AM 44.6 °F 42.8 °F 93% 30.20 in 10.0 mi Calm Calm - N/A   Clear
6:15 AM 44.6 °F 42.8 °F 93% 30.21 in 10.0 mi Calm Calm - N/A   Mostly Cloudy
6:35 AM 44.6 °F 42.8 °F 93% 30.21 in 10.0 mi Calm Calm - N/A   Scattered Clouds
6:55 AM 44.6 °F 42.8 °F 93% 30.21 in 10.0 mi Calm Calm - N/A   Clear
7:15 AM 44.6 °F 42.8 °F 93% 30.21 in 10.0 mi Calm Calm - N/A   Clear
7:35 AM 44.6 °F 44.6 °F 100% 30.21 in 10.0 mi Calm Calm - N/A   Clear
7:55 AM 46.4 °F 44.6 °F 93% 30.22 in 10.0 mi Calm Calm - N/A   Clear
8:15 AM 50.0 °F 46.4 °F 87% 30.22 in 10.0 mi Calm Calm - N/A   Clear
8:35 AM 53.6 °F 48.2 °F 82% 30.21 in 10.0 mi Calm Calm - N/A   Clear
8:55 AM 55.4 °F 50.0 °F 82% 30.21 in 10.0 mi Calm Calm - N/A   Clear
9:15 AM 59.0 °F 53.6 °F 82% 30.21 in 10.0 mi Calm Calm - N/A   Clear
9:35 AM 62.6 °F 53.6 °F 72% 30.22 in 10.0 mi East 3.5 mph - N/A   Clear
9:55 AM 62.6 °F 55.4 °F 77% 30.22 in 10.0 mi ENE 4.6 mph - N/A   Clear
10:15 AM 64.4 °F 55.4 °F 73% 30.22 in 10.0 mi ENE 4.6 mph - N/A   Clear
10:35 AM 64.4 °F 55.4 °F 73% 30.21 in 10.0 mi ENE 4.6 mph - N/A   Clear
10:55 AM 66.2 °F 53.6 °F 64% 30.21 in 10.0 mi ESE 5.8 mph - N/A   Partly Cloudy
11:15 AM 66.2 °F 51.8 °F 60% 30.21 in 10.0 mi ESE 8.1 mph - N/A   Partly Cloudy
11:35 AM 68.0 °F 50.0 °F 52% 30.21 in 10.0 mi ESE 4.6 mph - N/A   Partly Cloudy
11:55 AM 66.2 °F 51.8 °F 60% 30.20 in 10.0 mi East 4.6 mph - N/A   Scattered Clouds
12:15 PM 68.0 °F 51.8 °F 56% 30.19 in 10.0 mi ESE 3.5 mph - N/A   Partly Cloudy
12:35 PM 68.0 °F 53.6 °F 60% 30.18 in 10.0 mi ENE 4.6 mph - N/A   Mostly Cloudy
12:55 PM 68.0 °F 53.6 °F 60% 30.17 in 10.0 mi NE 6.9 mph - N/A   Mostly Cloudy
1:15 PM 66.2 °F 51.8 °F 60% 30.17 in 10.0 mi ENE 4.6 mph - N/A   Scattered Clouds
1:35 PM 69.8 °F 51.8 °F 53% 30.17 in 10.0 mi ESE 4.6 mph - N/A   Partly Cloudy
1:55 PM 68.0 °F 50.0 °F 52% 30.16 in 10.0 mi East 4.6 mph - N/A   Mostly Cloudy
2:15 PM 68.0 °F 51.8 °F 56% 30.15 in 10.0 mi East 4.6 mph - N/A   Scattered Clouds
2:35 PM 68.0 °F 50.0 °F 52% 30.14 in 10.0 mi East 3.5 mph - N/A   Clear
2:55 PM 68.0 °F 50.0 °F 52% 30.14 in 10.0 mi Calm Calm - N/A   Scattered Clouds
3:15 PM 68.0 °F 51.8 °F 56% 30.13 in 10.0 mi ENE 3.5 mph - N/A   Overcast
3:35 PM 68.0 °F 51.8 °F 56% 30.12 in 10.0 mi ENE 4.6 mph - N/A   Overcast
3:55 PM 68.0 °F 50.0 °F 52% 30.12 in 10.0 mi ESE 4.6 mph - N/A   Overcast
4:15 PM 68.0 °F 50.0 °F 52% 30.11 in 10.0 mi ESE 4.6 mph - N/A   Overcast
4:35 PM 68.0 °F 51.8 °F 56% 30.11 in 10.0 mi Calm Calm - N/A   Overcast
4:55 PM 68.0 °F 50.0 °F 52% 30.11 in 10.0 mi Calm Calm - N/A   Overcast
5:15 PM 69.8 °F 50.0 °F 49% 30.10 in 10.0 mi ESE 4.6 mph - N/A   Scattered Clouds
5:35 PM 68.0 °F 51.8 °F 56% 30.10 in 10.0 mi SSE 3.5 mph - N/A   Clear
5:55 PM 68.0 °F 51.8 °F 56% 30.10 in 10.0 mi Calm Calm - N/A   Clear
6:15 PM 68.0 °F 51.8 °F 56% 30.10 in 10.0 mi SSE 3.5 mph - N/A   Clear
6:35 PM 64.4 °F 53.6 °F 68% 30.10 in 10.0 mi Calm Calm - N/A   Clear
6:55 PM 59.0 °F 53.6 °F 82% 30.10 in 10.0 mi Calm Calm - N/A   Clear
7:15 PM 59.0 °F 53.6 °F 82% 30.11 in 10.0 mi Calm Calm - N/A   Clear
7:35 PM 57.2 °F 53.6 °F 88% 30.11 in 10.0 mi Calm Calm - N/A   Clear
7:55 PM 55.4 °F 51.8 °F 88% 30.11 in 9.0 mi Calm Calm - N/A   Clear
8:15 PM 55.4 °F 51.8 °F 88% 30.11 in 10.0 mi Calm Calm - N/A   Clear
8:35 PM 53.6 °F 51.8 °F 94% 30.11 in 10.0 mi Calm Calm - N/A   Clear
8:55 PM 53.6 °F 50.0 °F 88% 30.11 in 10.0 mi Calm Calm - N/A   Clear
9:15 PM 51.8 °F 50.0 °F 94% 30.11 in 10.0 mi Calm Calm - N/A   Clear
9:35 PM 51.8 °F 50.0 °F 94% 30.11 in 10.0 mi Calm Calm - N/A   Clear
9:55 PM 51.8 °F 50.0 °F 94% 30.11 in 10.0 mi Calm Calm - N/A   Clear
10:15 PM 50.0 °F 50.0 °F 100% 30.11 in 10.0 mi Calm Calm - N/A   Clear
10:35 PM 50.0 °F 50.0 °F 100% 30.11 in 10.0 mi Calm Calm - N/A   Clear
10:55 PM 50.0 °F 48.2 °F 94% 30.11 in 10.0 mi Calm Calm - N/A   Clear
11:15 PM 50.0 °F 48.2 °F 94% 30.11 in 10.0 mi Calm Calm - N/A   Clear
11:35 PM 50.0 °F 48.2 °F 94% 30.11 in 10.0 mi Calm Calm - N/A   Clear
11:55 PM 48.2 °F 48.2 °F 100% 30.11 in 10.0 mi Calm Calm - N/A   Clear